World > North America > United States > Virginia > Fort Lee  

Fort Lee, VA Hourly Weather Updates

Feedback E-mail the Weather

Quick Clicks

Fort Lee, VA Weather Maps

°F °C°F °C
Fort Lee Weather Map
UTC Time: 7/21/2024, 13:27
Your Time:

Fort Lee, VA Regional Weather

Expires:202407211400;;045087
ASUS41 KAKQ 211311
RWRAKQ

REGIONAL WEATHER ROUNDUP
NATIONAL WEATHER SERVICE WAKEFIELD VA
900 AM EDT SUN JUL 21 2024

Note: "fair" indicates few or no clouds below 12,000 feet with no
significant weather and/or obstructions to visibility. * = Denotes
station may not report precipitation (e.g., rain,snow,etc.),
thunder or fog.


VAZ048-049-060>072-079>083-211400-
CENTRAL AND SOUTH CENTRAL VIRGINIA
  
CITY           SKY/WX    TMP DP  RH WIND       PRES   REMARKS
RICHMOND       PTSUNNY   76  73  91 SE5       30.06S                  
CHESTERFIELD*    N/A     75  75 100 S3        30.07S                  
PETERSBURG*    MOSUNNY   73  71  94 CALM      30.08S                  
HANOVER        SUNNY     76  71  85 E3        30.08R                  
TAPPAHANNOCK*  SUNNY     74  74  98 CALM      30.08R                  
QUINTON*       PTSUNNY   73  72  98 CALM      30.07S                  
CHARLOTTSVILLE MOSUNNY   78  68  71 CALM      30.07R                  
GORDONSVILLE*  CLOUDY    71  70  99 CALM      30.07S                  
ORANGE*        CLOUDY    70  70 100 CALM      30.09S FOG              
LOUISA*        CLOUDY    72  71  96 E3        30.08S FOG              
BUMPASS*       CLOUDY    71  71  98 CALM      30.07S                  
FARMVILLE*     SUNNY     74  70  87 CALM      30.06S                  
CREWE*         MOSUNNY   77  68  75 W3        30.07S                  
FORT PICKETT*  MOSUNNY   78  75  90 CALM      30.06S                  
CHASE CITY*    MOSUNNY   75  73  95 CALM      30.09S                  
CLARKSVILLE*   PTSUNNY   73  73 100 CALM      30.08S                  
SOUTH HILL*    MOSUNNY   75  75  98 CALM      30.14S                  
LAWRENCEVILLE* MOSUNNY   74  73  96 CALM      30.09R                  
EMPORIA*       PTSUNNY   73  72  95 CALM      30.09S                  
$$


SKY/WX - Weather  TMP - Temperature  DP - Dew Point  RH - Humidity
WIND - Wind Direction/Speed PRES - Barometric Pressure VSB - Visibility
WCI - Wind Chill Index E13G22 Wind - East Wind 13 mph/Gusts of 22 mph

Trending Headlines

Trending Entertainment Headlines

Fort Lee Radar Loop

Use the map search tool if you want to place a location marker on the radar map...

Fort Lee Quick Facts

National Two Day Weather Forecast


E-mail the Fort Lee Weather Forecast

Voice your opinion or tell us about page issues...